Time,TemperatureF,DewpointF,PressureIn,WindDirection,WindDirectionDegrees,WindSpeedMPH,WindSpeedGustMPH,Humidity,HourlyPrecipIn,Conditions,Clouds,dailyrainin,SoftwareType,DateUTC
2014-08-29 00:01:00,59.7,53.2,29.47,East,86,0.0,0.0,79,0.00,,,0.00,VWS V14.01,2014-08-29 07:01:00,
2014-08-29 00:06:00,59.9,53.4,29.47,East,86,0.0,0.0,79,0.00,,,0.00,VWS V14.01,2014-08-29 07:06:00,
2014-08-29 00:11:00,59.9,53.7,29.47,East,86,0.0,0.0,80,0.00,,,0.00,VWS V14.01,2014-08-29 07:11:00,
2014-08-29 00:15:00,60.1,53.9,29.47,East,86,0.0,0.0,80,0.00,,,0.00,VWS V14.01,2014-08-29 07:15:00,
2014-08-29 00:20:00,60.1,53.9,29.47,East,86,0.0,0.0,80,0.00,,,0.00,VWS V14.01,2014-08-29 07:20:00,
2014-08-29 00:25:00,60.4,54.6,29.47,East,86,0.0,0.0,81,0.00,,,0.00,VWS V14.01,2014-08-29 07:25:00,
2014-08-29 00:30:00,60.4,54.6,29.47,East,86,0.0,0.0,81,0.00,,,0.00,VWS V14.01,2014-08-29 07:30:00,
2014-08-29 00:35:00,60.6,55.1,29.47,East,86,0.0,0.0,82,0.00,,,0.00,VWS V14.01,2014-08-29 07:35:00,
2014-08-29 00:40:00,60.8,54.9,29.47,East,86,0.0,0.0,81,0.00,,,0.00,VWS V14.01,2014-08-29 07:40:00,
2014-08-29 00:45:00,61.0,55.5,29.47,East,86,0.0,0.0,82,0.00,,,0.00,VWS V14.01,2014-08-29 07:45:00,
2014-08-29 00:50:00,61.0,55.5,29.47,East,86,0.0,0.0,82,0.00,,,0.00,VWS V14.01,2014-08-29 07:50:00,
2014-08-29 00:55:00,61.0,55.5,29.47,East,86,0.0,0.0,82,0.00,,,0.00,VWS V14.01,2014-08-29 07:55:00,
2014-08-29 01:00:00,60.8,55.3,29.47,East,86,0.0,0.0,82,0.00,,,0.00,VWS V14.01,2014-08-29 08:00:00,
2014-08-29 01:05:00,60.6,55.1,29.47,East,86,0.0,0.0,82,0.00,,,0.00,VWS V14.01,2014-08-29 08:05:00,
2014-08-29 01:10:00,60.4,54.9,29.47,East,86,0.0,0.0,82,0.00,,,0.00,VWS V14.01,2014-08-29 08:10:00,
2014-08-29 01:15:00,60.1,54.6,29.47,East,86,0.0,0.0,82,0.00,,,0.00,VWS V14.01,2014-08-29 08:15:00,
2014-08-29 01:20:00,60.1,54.6,29.47,East,86,0.0,0.0,82,0.00,,,0.00,VWS V14.01,2014-08-29 08:20:00,
2014-08-29 01:25:00,59.9,54.1,29.47,East,86,0.0,0.0,81,0.00,,,0.00,VWS V14.01,2014-08-29 08:25:00,
2014-08-29 01:30:00,59.7,54.2,29.47,East,86,0.0,0.0,82,0.00,,,0.00,VWS V14.01,2014-08-29 08:30:00,
2014-08-29 01:35:00,59.7,54.2,29.47,East,86,0.0,0.0,82,0.00,,,0.00,VWS V14.01,2014-08-29 08:35:00,
2014-08-29 01:40:00,59.7,54.2,29.47,East,86,0.0,0.0,82,0.00,,,0.00,VWS V14.01,2014-08-29 08:40:00,
2014-08-29 01:45:00,59.7,54.2,29.47,East,86,0.0,0.0,82,0.00,,,0.00,VWS V14.01,2014-08-29 08:45:00,
2014-08-29 01:50:00,59.9,54.4,29.44,East,86,0.0,0.0,82,0.00,,,0.00,VWS V14.01,2014-08-29 08:50:00,
2014-08-29 01:55:00,59.9,54.4,29.44,East,86,0.0,0.0,82,0.00,,,0.00,VWS V14.01,2014-08-29 08:55:00,
2014-08-29 02:00:00,59.9,54.4,29.44,East,86,0.0,0.0,82,0.00,,,0.00,VWS V14.01,2014-08-29 09:00:00,
2014-08-29 02:05:00,59.9,54.4,29.44,East,86,0.0,0.0,82,0.00,,,0.00,VWS V14.01,2014-08-29 09:05:00,
2014-08-29 02:10:00,59.9,54.4,29.44,East,86,0.0,0.0,82,0.00,,,0.00,VWS V14.01,2014-08-29 09:10:00,
2014-08-29 02:15:00,59.9,54.7,29.44,East,86,0.0,0.0,83,0.00,,,0.00,VWS V14.01,2014-08-29 09:15:00,
2014-08-29 02:20:00,59.9,54.4,29.44,East,86,0.0,0.0,82,0.00,,,0.00,VWS V14.01,2014-08-29 09:20:00,
2014-08-29 02:25:00,59.7,54.6,29.44,East,86,0.0,0.0,83,0.00,,,0.00,VWS V14.01,2014-08-29 09:25:00,
2014-08-29 02:30:00,59.7,54.6,29.44,East,86,0.0,0.0,83,0.00,,,0.00,VWS V14.01,2014-08-29 09:30:00,
2014-08-29 02:35:00,59.9,54.7,29.44,East,86,0.0,0.0,83,0.00,,,0.00,VWS V14.01,2014-08-29 09:35:00,